�N����,����,�~����,�C��,���x,�C��,����,���ϕ���,�ő�u�ԕ���,�ő厞����,���˗�,�I�_���x,�n�����x,�ő啗���N��,DTYPE
"18/09/26","00:10",0.0,16.3,94.1,1010.0,306.7,1.1,1.8,323.3,0.00,15.4,21.1,"00:02:56",1
"18/09/26","00:20",0.0,16.2,93.9,1010.2,306.2,1.1,2.0,308.6,0.00,15.3,21.2,"00:16:16",1
"18/09/26","00:30",0.0,16.3,94.0,1010.2,308.5,1.3,2.5,317.2,0.00,15.4,21.1,"00:25:52",1
"18/09/26","00:40",0.0,16.9,92.8,1010.2,318.6,2.1,4.0,328.2,0.00,15.8,21.3,"00:32:08",1
"18/09/26","00:50",0.0,17.0,92.1,1010.2,321.1,1.8,4.0,342.0,0.00,15.7,21.2,"00:49:28",1
"18/09/26","01:00",0.0,18.1,89.0,1010.4,314.3,2.7,5.9,341.9,0.00,16.3,21.2,"00:59:04",1
"18/09/26","01:10",0.0,18.7,83.9,1010.2,325.8,2.8,4.7,320.7,0.00,16.0,21.1,"01:05:28",1
"18/09/26","01:20",0.0,18.8,81.4,1010.9,328.9,2.7,5.4,326.2,0.00,15.6,21.2,"01:12:16",1
"18/09/26","01:30",0.0,18.8,81.1,1010.4,332.8,2.0,3.6,348.2,0.00,15.5,21.1,"01:23:20",1
"18/09/26","01:40",0.2,18.7,80.3,1010.9,315.8,1.0,2.8,317.7,0.00,15.3,21.0,"01:30:16",1
"18/09/26","01:50",0.0,18.8,80.6,1011.2,318.6,1.1,2.9,330.6,0.00,15.4,21.0,"01:41:44",1
"18/09/26","02:00",0.0,18.9,79.6,1010.7,347.8,1.1,2.1,331.6,0.00,15.3,20.9,"01:54:16",1
"18/09/26","02:10",0.0,18.9,79.0,1010.7,349.5,1.5,4.0,338.1,0.00,15.2,21.0,"02:06:16",1
"18/09/26","02:20",0.0,18.3,80.4,1010.7,256.3,0.3,1.1,201.6,0.00,14.9,20.7,"02:12:48",1
"18/09/26","02:30",0.0,17.6,82.7,1010.4,300.5,1.0,2.2,324.6,0.00,14.7,21.0,"02:24:48",1
"18/09/26","02:40",0.0,17.0,85.0,1010.4,319.6,0.8,1.8,340.5,0.00,14.5,21.0,"02:38:00",1
"18/09/26","02:50",0.0,16.6,87.3,1010.4,307.7,1.1,2.1,327.8,0.00,14.5,20.9,"02:46:32",1
"18/09/26","03:00",0.0,16.2,89.0,1010.0,312.8,0.7,1.3,331.2,0.00,14.4,20.6,"02:59:04",1
"18/09/26","03:10",0.0,15.8,90.3,1010.2,317.8,0.7,1.2,320.1,0.00,14.3,20.8,"03:04:24",1
"18/09/26","03:20",0.0,15.5,91.6,1010.0,296.7,0.5,1.0,322.1,0.00,14.2,20.6,"03:10:08",1
"18/09/26","03:30",0.0,15.3,91.8,1010.0,313.2,0.6,1.2,273.8,0.00,14.0,20.7,"03:24:48",1
"18/09/26","03:40",0.0,15.5,92.7,1010.2,312.4,1.2,2.5,328.3,0.00,14.4,20.7,"03:34:24",1
"18/09/26","03:50",0.0,15.4,92.9,1009.7,316.7,0.8,2.7,332.2,0.00,14.3,20.5,"03:45:44",1
"18/09/26","04:00",0.0,15.5,94.1,1010.0,326.7,1.2,2.2,348.2,0.00,14.6,20.5,"03:51:36",1
"18/09/26","04:10",0.0,15.3,94.1,1010.0,299.5,0.7,1.6,322.1,0.00,14.4,20.5,"04:02:16",1
"18/09/26","04:20",0.0,15.1,94.3,1010.0,331.0,0.6,1.3,330.4,0.00,14.2,20.4,"04:18:16",1
"18/09/26","04:30",0.0,15.1,94.6,1010.0,300.3,1.0,1.6,303.0,0.00,14.3,20.4,"04:29:44",1
"18/09/26","04:40",0.0,14.9,95.1,1010.2,315.4,0.8,1.9,337.1,0.00,14.2,20.4,"04:39:36",1
"18/09/26","04:50",0.0,14.9,95.4,1009.7,311.1,1.0,1.4,330.4,0.00,14.2,20.2,"04:41:20",1
"18/09/26","05:00",0.0,14.9,95.7,1010.0,316.8,1.0,1.9,323.5,0.00,14.3,20.2,"04:50:32",1
"18/09/26","05:10",0.0,14.9,96.0,1010.0,298.0,0.8,1.4,330.2,0.00,14.3,20.2,"05:00:02",1
"18/09/26","05:20",0.0,14.8,96.1,1010.2,292.8,0.6,1.4,327.6,0.00,14.2,20.2,"05:10:16",1
"18/09/26","05:30",0.0,14.7,95.9,1009.7,320.1,1.2,2.0,327.1,0.00,14.1,20.3,"05:27:36",1
"18/09/26","05:40",0.0,14.9,96.3,1009.7,328.7,1.5,2.2,330.7,0.00,14.4,20.3,"05:39:12",1
"18/09/26","05:50",0.0,14.8,95.7,1010.0,312.1,0.7,1.7,320.3,0.00,14.2,20.1,"05:40:32",1
"18/09/26","06:00",0.0,14.8,96.6,1010.0,303.6,0.7,1.6,316.2,0.00,14.3,20.0,"05:51:52",1
"18/09/26","06:10",0.0,14.7,96.4,1010.0,315.5,0.8,1.6,332.6,0.00,14.2,20.2,"06:02:40",1
"18/09/26","06:20",0.0,14.6,96.5,1009.7,313.6,0.7,1.6,327.1,0.00,14.1,19.9,"06:12:08",1
"18/09/26","06:30",0.0,14.6,97.1,1010.2,307.4,0.8,1.2,307.8,0.00,14.2,19.9,"06:24:00",1
"18/09/26","06:40",0.0,15.1,96.8,1010.2,319.1,1.0,1.3,328.7,0.00,14.6,20.1,"06:31:20",1
"18/09/26","06:50",0.0,15.5,96.8,1010.4,291.7,0.5,1.1,314.0,0.00,15.0,20.0,"06:41:04",1
"18/09/26","07:00",0.0,16.5,96.2,1010.7,324.3,0.5,1.2,338.5,0.01,15.9,20.1,"06:59:36",1
"18/09/26","07:10",0.0,17.1,94.9,1010.4,353.2,0.6,1.4,337.7,0.02,16.3,20.0,"07:00:48",1
"18/09/26","07:20",0.0,17.6,94.0,1010.4,326.4,0.6,1.1,317.5,0.03,16.7,20.1,"07:13:20",1
"18/09/26","07:30",0.0,19.0,90.8,1010.7,336.1,1.0,1.6,337.3,0.08,17.5,19.8,"07:21:52",1
"18/09/26","07:40",0.0,20.0,85.1,1010.9,337.8,0.6,1.3,337.9,0.07,17.5,20.2,"07:33:20",1
"18/09/26","07:50",0.0,20.6,79.9,1011.2,341.7,0.6,2.0,312.0,0.11,17.1,20.2,"07:46:08",1
"18/09/26","08:00",0.0,20.8,75.7,1011.4,335.6,2.1,4.7,345.6,0.13,16.4,20.2,"07:54:40",1
"18/09/26","08:10",0.0,21.4,71.6,1011.4,338.8,1.1,2.9,349.5,0.16,16.1,20.2,"08:02:40",1
"18/09/26","08:20",0.0,21.5,70.8,1011.4,318.9,1.1,2.7,311.6,0.15,16.0,20.4,"08:11:52",1
"18/09/26","08:30",0.0,21.2,72.4,1010.9,325.7,0.6,1.9,320.3,0.08,16.1,20.5,"08:26:56",1
"18/09/26","08:40",0.0,22.2,68.2,1010.9,358.3,2.0,4.2,11.7,0.23,16.1,20.4,"08:36:00",1
"18/09/26","08:50",0.0,22.5,69.0,1010.9,343.3,1.6,3.5,349.8,0.23,16.6,20.6,"08:41:12",1
"18/09/26","09:00",0.0,23.3,64.6,1010.7,331.4,1.5,3.9,342.7,0.44,16.3,20.8,"08:59:44",1
"18/09/26","09:10",0.0,22.9,66.6,1010.4,344.9,1.2,3.3,324.4,0.31,16.4,21.0,"09:02:48",1
"18/09/26","09:20",0.0,22.3,66.1,1010.7,337.6,2.3,5.1,352.0,0.18,15.7,21.0,"09:19:20",1
"18/09/26","09:30",0.0,22.2,65.5,1010.4,337.4,2.8,4.7,347.8,0.19,15.5,21.1,"09:21:52",1
"18/09/26","09:40",0.0,23.1,63.6,1010.2,8.9,1.2,2.7,343.9,0.27,15.9,21.3,"09:36:00",1
"18/09/26","09:50",0.0,23.1,62.6,1010.2,20.2,1.5,4.2,76.1,0.28,15.6,21.3,"09:40:16",1
"18/09/26","10:00",0.0,23.2,63.0,1010.0,355.5,1.8,4.5,339.6,0.24,15.8,21.6,"09:57:12",1
"18/09/26","10:10",0.0,23.3,60.3,1010.0,351.8,2.5,4.8,332.9,0.35,15.2,21.7,"10:03:20",1
"18/09/26","10:20",0.0,24.0,58.3,1009.7,351.8,2.3,4.4,357.7,0.39,15.4,21.7,"10:10:40",1
"18/09/26","10:30",0.0,24.4,55.2,1009.3,0.9,2.3,5.2,336.3,0.47,14.9,22.0,"10:25:28",1
"18/09/26","10:40",0.0,24.7,56.4,1009.0,350.2,2.6,5.4,357.4,0.55,15.5,22.3,"10:38:08",1
"18/09/26","10:50",0.0,24.3,56.7,1009.3,332.7,2.2,4.1,320.1,0.29,15.2,22.3,"10:41:20",1
"18/09/26","11:00",0.0,24.2,60.1,1009.3,343.4,2.1,4.7,335.3,0.27,16.0,22.3,"10:52:08",1
"18/09/26","11:10",0.0,23.6,61.2,1009.0,338.1,2.2,5.6,346.0,0.21,15.7,22.7,"11:06:16",1
"18/09/26","11:20",0.0,23.2,60.8,1009.3,347.0,2.8,4.7,338.2,0.16,15.3,22.4,"11:18:16",1
"18/09/26","11:30",0.0,23.0,61.4,1009.5,343.8,3.0,5.4,348.7,0.14,15.2,22.6,"11:25:12",1
"18/09/26","11:40",0.0,23.8,60.7,1008.8,338.6,2.5,6.0,322.6,0.26,15.8,22.7,"11:30:40",1
"18/09/26","11:50",0.0,24.0,59.9,1009.5,347.9,1.8,4.9,344.0,0.29,15.8,22.6,"11:49:28",1
"18/09/26","12:00",0.0,23.8,61.8,1008.8,338.7,2.8,6.3,333.6,0.29,16.1,22.7,"11:50:40",1
"18/09/26","12:10",0.0,24.0,63.8,1009.0,343.5,2.6,6.7,313.4,0.31,16.8,22.8,"12:04:40",1
"18/09/26","12:20",0.0,23.9,62.8,1008.8,355.4,2.0,4.1,344.2,0.25,16.4,22.7,"12:10:02",1
"18/09/26","12:30",0.0,23.7,62.5,1007.8,340.4,1.8,4.5,348.4,0.25,16.2,22.9,"12:28:40",1
"18/09/26","12:40",0.0,23.6,62.4,1008.3,333.8,2.3,5.7,334.5,0.26,16.0,23.2,"12:33:04",1
"18/09/26","12:50",0.0,23.7,62.0,1007.6,333.4,1.8,4.0,315.3,0.24,16.0,23.1,"12:41:20",1
"18/09/26","13:00",0.0,23.9,60.4,1007.4,9.6,1.7,4.0,337.7,0.26,15.8,23.2,"12:52:56",1
"18/09/26","13:10",0.0,23.8,62.2,1007.1,344.8,2.2,4.1,349.7,0.24,16.2,23.3,"13:04:08",1
"18/09/26","13:20",0.0,23.9,61.3,1007.4,341.3,2.3,3.9,329.0,0.23,16.0,23.3,"13:17:04",1
"18/09/26","13:30",0.0,23.8,60.6,1007.1,335.3,2.5,5.2,323.1,0.18,15.8,23.2,"13:20:40",1
"18/09/26","13:40",0.0,23.4,61.8,1007.1,339.5,2.0,4.2,324.8,0.14,15.7,23.3,"13:38:32",1
"18/09/26","13:50",0.0,23.6,60.7,1007.1,337.9,2.7,4.5,342.8,0.09,15.6,23.2,"13:47:20",1
"18/09/26","14:00",0.0,23.9,59.5,1007.1,340.6,2.2,4.2,340.6,0.10,15.6,23.2,"13:51:36",1
"18/09/26","14:10",0.0,23.5,61.4,1007.1,341.4,2.5,4.3,344.2,0.09,15.7,23.3,"14:00:32",1
"18/09/26","14:20",0.0,22.9,63.1,1007.4,340.7,2.5,4.5,330.1,0.03,15.6,23.3,"14:18:48",1
"18/09/26","14:30",0.0,22.7,64.9,1007.4,336.6,2.7,5.0,336.4,0.03,15.8,23.2,"14:21:36",1
"18/09/26","14:40",0.2,22.0,69.4,1008.1,333.7,2.2,4.1,335.9,0.02,16.2,23.2,"14:35:36",1
"18/09/26","14:50",0.0,21.4,73.3,1008.1,347.6,1.2,2.0,336.8,0.01,16.5,22.9,"14:40:08",1
"18/09/26","15:00",0.6,20.4,78.3,1008.3,333.4,2.2,5.0,342.8,0.01,16.5,23.1,"14:59:04",1
"18/09/26","15:10",1.2,19.5,82.9,1008.1,339.7,2.5,4.4,342.2,0.02,16.6,23.0,"15:09:20",1
"18/09/26","15:20",0.6,19.2,86.2,1008.1,335.4,1.7,3.5,348.0,0.03,16.9,22.8,"15:11:28",1
"18/09/26","15:30",0.2,19.0,88.2,1008.6,322.3,1.7,3.1,318.6,0.01,17.0,22.8,"15:23:44",1
"18/09/26","15:40",1.0,18.9,89.0,1009.5,294.5,1.1,3.4,310.7,0.00,17.1,22.9,"15:30:08",1
"18/09/26","15:50",0.2,18.8,89.8,1009.3,352.2,0.3,0.9,12.6,0.00,17.1,22.7,"15:48:40",1
"18/09/26","16:00",0.6,18.8,90.0,1008.8,303.2,0.6,1.1,346.9,0.00,17.2,22.5,"15:58:48",1
"18/09/26","16:10",0.6,18.8,91.0,1008.6,321.2,0.8,1.7,315.5,0.01,17.3,22.4,"16:04:40",1
"18/09/26","16:20",0.0,18.8,91.7,1009.0,215.9,0.8,2.1,250.9,0.01,17.5,22.5,"16:19:20",1
"18/09/26","16:30",0.2,18.7,91.9,1009.0,232.3,0.7,2.0,269.3,0.01,17.4,22.4,"16:20:24",1
"18/09/26","16:40",0.0,18.7,92.2,1008.8,27.1,0.6,1.7,121.5,0.00,17.4,22.2,"16:36:56",1
"18/09/26","16:50",0.2,18.7,92.7,1008.8,148.5,0.6,1.6,139.9,0.00,17.5,22.2,"16:40:40",1
"18/09/26","17:00",0.0,18.7,93.0,1008.8,309.4,0.6,2.1,325.0,0.00,17.6,22.4,"16:53:28",1
"18/09/26","17:10",0.0,18.7,93.2,1008.6,40.9,0.6,1.3,30.7,0.00,17.6,22.2,"17:04:16",1
"18/09/26","17:20",0.0,18.5,93.4,1009.5,217.4,0.6,1.8,116.5,0.00,17.5,22.2,"17:11:44",1
"18/09/26","17:30",0.0,18.5,93.7,1009.5,294.0,0.8,1.4,334.9,0.00,17.5,22.1,"17:29:52",1
"18/09/26","17:40",0.0,18.6,94.1,1008.6,286.3,0.3,1.2,319.7,0.00,17.7,22.1,"17:30:08",1
"18/09/26","17:50",0.0,18.4,94.2,1009.3,321.7,1.0,1.9,319.4,0.00,17.5,22.0,"17:47:04",1
"18/09/26","18:00",0.0,18.5,94.5,1009.0,298.7,0.6,1.1,325.7,0.00,17.6,22.0,"17:53:44",1
"18/09/26","18:10",0.2,18.4,94.4,1008.6,17.2,0.3,0.9,325.3,0.00,17.5,22.0,"18:00:24",1
"18/09/26","18:20",0.2,18.2,94.8,1009.0,281.0,1.0,1.7,259.0,0.00,17.4,21.9,"18:15:12",1
"18/09/26","18:30",0.0,18.2,94.9,1009.0,334.3,0.8,1.6,341.2,0.00,17.4,22.0,"18:21:36",1
"18/09/26","18:40",0.0,18.1,95.1,1009.3,321.4,0.2,0.8,250.1,0.00,17.3,21.8,"18:30:32",1
"18/09/26","18:50",0.0,18.1,95.2,1009.5,313.8,1.0,1.6,324.6,0.00,17.4,21.8,"18:46:48",1
"18/09/26","19:00",0.0,18.1,95.4,1009.3,352.0,0.3,1.2,346.9,0.00,17.4,21.6,"18:56:32",1
"18/09/26","19:10",0.0,18.1,95.6,1009.0,49.1,0.5,1.8,69.4,0.00,17.4,21.8,"19:07:12",1
"18/09/26","19:20",0.0,18.0,95.5,1009.0,207.9,1.1,2.6,198.4,0.00,17.3,21.8,"19:17:52",1
"18/09/26","19:30",0.0,18.0,95.4,1009.3,195.3,0.8,2.0,191.2,0.00,17.3,21.7,"19:21:04",1
"18/09/26","19:40",0.2,17.9,95.6,1009.7,152.4,0.8,1.8,125.4,0.00,17.2,21.8,"19:35:36",1
"18/09/26","19:50",0.0,17.9,95.6,1010.0,215.9,0.8,1.8,209.4,0.00,17.2,21.5,"19:40:08",1
"18/09/26","20:00",0.0,17.9,95.6,1010.0,149.6,0.5,0.9,85.4,0.00,17.2,21.5,"19:53:44",1
"18/09/26","20:10",0.0,17.9,95.7,1010.2,244.9,0.7,1.9,345.3,0.00,17.2,21.5,"20:00:02",1
"18/09/26","20:20",0.2,18.0,95.6,1009.7,16.8,0.8,1.9,338.1,0.00,17.3,21.4,"20:10:32",1
"18/09/26","20:30",0.0,17.9,95.6,1009.7,354.1,0.7,1.4,325.9,0.00,17.2,21.5,"20:26:16",1
"18/09/26","20:40",0.0,17.7,95.8,1010.0,258.5,0.5,1.1,1.6,0.00,17.1,21.5,"20:32:16",1
"18/09/26","20:50",0.2,17.8,96.0,1009.7,314.4,0.3,1.0,316.0,0.00,17.2,21.5,"20:49:28",1
"18/09/26","21:00",0.0,17.8,96.1,1010.2,280.2,0.8,1.2,310.5,0.00,17.2,21.5,"20:50:08",1
"18/09/26","21:10",0.0,17.8,96.2,1010.2,281.2,0.8,1.3,313.1,0.00,17.2,21.5,"21:07:36",1
"18/09/26","21:20",0.4,17.9,96.2,1010.2,319.1,0.6,1.3,325.7,0.00,17.3,21.5,"21:19:04",1
"18/09/26","21:30",0.0,17.7,96.1,1010.0,339.8,1.1,1.8,334.7,0.00,17.1,21.4,"21:28:32",1
"18/09/26","21:40",0.0,17.6,96.3,1010.4,316.3,1.0,1.7,336.3,0.00,17.0,21.4,"21:32:24",1
"18/09/26","21:50",0.2,17.6,96.5,1010.4,280.2,0.7,1.0,272.0,0.00,17.1,21.1,"21:40:48",1
"18/09/26","22:00",0.4,17.6,96.5,1010.4,171.5,0.2,0.8,294.5,0.00,17.1,21.5,"21:50:40",1
"18/09/26","22:10",0.2,17.6,96.6,1009.7,316.7,1.0,1.4,351.9,0.00,17.1,21.3,"22:05:12",1
"18/09/26","22:20",0.4,17.6,96.6,1010.0,298.4,1.0,1.4,321.2,0.00,17.1,21.2,"22:16:56",1
"18/09/26","22:30",0.2,17.6,96.7,1009.7,312.3,0.8,1.2,348.6,0.00,17.1,21.4,"22:26:48",1
"18/09/26","22:40",0.0,17.6,96.8,1009.7,310.6,1.0,1.6,320.5,0.00,17.1,21.2,"22:32:24",1
"18/09/26","22:50",0.4,17.7,96.8,1009.7,293.8,0.8,1.4,332.9,0.00,17.2,21.4,"22:41:44",1
"18/09/26","23:00",0.2,17.7,97.0,1010.0,249.8,0.5,0.9,240.9,0.00,17.3,21.2,"22:59:44",1
"18/09/26","23:10",0.4,17.7,96.9,1009.7,190.4,0.2,1.2,147.9,0.00,17.2,21.1,"23:03:44",1
"18/09/26","23:20",0.6,17.6,96.8,1009.7,200.5,0.5,1.6,149.3,0.00,17.1,21.2,"23:14:48",1
"18/09/26","23:30",0.4,17.5,96.9,1009.5,199.1,0.6,1.6,227.9,0.00,17.0,20.9,"23:25:52",1
"18/09/26","23:40",0.2,17.6,97.0,1009.5,280.7,0.5,0.9,300.9,0.00,17.2,21.3,"23:36:40",1
"18/09/26","23:50",0.4,17.6,97.1,1009.5,304.4,0.8,1.6,342.4,0.00,17.2,21.1,"23:49:28",1
"18/09/26","24:00",0.6,17.6,97.1,1009.0,328.1,1.1,1.6,331.3,0.00,17.2,21.0,"23:51:12",1
